Location: Carr Mill
(33.2054°N, 85.9439°W)
Time: 01:33:50
(UTC+00:00)

STARLINK-2732 - Pass Details

Date: 24 October 2021
Orbit: 545 x 549 km, 53.1° (Epoch: 07 December)

Event Time Altitude Azimuth Distance (km) Brightness Sun altitude
Rises 11:20:53 0° 218° (SW) 2,693 6.8 -8.0°
Reaches altitude 10° 11:23:06 10° 217° (SW) 1,804 6.0 -7.5°
Maximum altitude 11:27:12 74° 132° (SE) 570 3.9 -6.7°
Drops below altitude 10° 11:31:18 10° 48° (NE) 1,815 6.8 -5.8°
Sets 11:33:33 0° 46° (NE) 2,711 7.7 -5.3°
